| time (UTC) | temp C | wind direction | speed KPH | gust KPH | rain 1hr cm | rain 24hr cm | rain mn cm | humidity % | barometer mb |
| 20260504141015 | 2 | 354 | 9.7 | 16.1 | 0.00 | 0.00 | 0.00 | 71 | 1011.0 |
| 20260504140509 | 2 | 2 | 9.7 | 17.7 | 0.00 | 0.00 | 0.00 | 71 | 1011.0 |
| 20260504130514 | 2 | 358 | 6.4 | 9.7 | 0.00 | 0.00 | 0.00 | 77 | 1011.0 |
| 20260504110513 | 5 | 334 | 6.4 | 8.0 | 0.00 | 0.00 | 0.00 | 58 | 1009.6 |
| 20260504100506 | 5 | 312 | 6.4 | 9.7 | 0.00 | 0.00 | 0.00 | 56 | 1010.1 |
| 20260504081506 | 6 | 313 | 8.0 | 11.3 | 0.00 | 0.00 | 0.00 | 59 | 1010.5 |
| 20260504081010 | 5 | 314 | 8.0 | 11.3 | 0.00 | 0.00 | 0.00 | 60 | 1010.5 |
| 20260504080514 | 5 | 313 | 8.0 | 11.3 | 0.00 | 0.00 | 0.00 | 60 | 1010.5 |
| 20260504050508 | 5 | 307 | 6.4 | 9.7 | 0.00 | 0.00 | 0.00 | 73 | 1011.8 |
| 20260504050013 | 5 | 311 | 6.4 | 9.7 | 0.00 | 0.00 | 0.00 | 74 | 1011.8 |
| 20260504045506 | 5 | 312 | 6.4 | 8.0 | 0.00 | 0.00 | 0.00 | 74 | 1011.8 |
| 20260504045012 | 5 | 314 | 4.8 | 6.4 | 0.00 | 0.00 | 0.00 | 74 | 1011.8 |
| 20260504044516 | 5 | 312 | 6.4 | 8.0 | 0.00 | 0.00 | 0.00 | 73 | 1011.8 |
| 20260504044010 | 5 | 312 | 6.4 | 9.7 | 0.00 | 0.00 | 0.00 | 74 | 1011.8 |
| 20260504043514 | 5 | 305 | 6.4 | 8.0 | 0.00 | 0.00 | 0.00 | 74 | 1011.8 |
| 20260504043008 | 5 | 310 | 4.8 | 6.4 | 0.00 | 0.00 | 0.00 | 74 | 1011.8 |
| 20260504042514 | 5 | 312 | 4.8 | 8.0 | 0.00 | 0.00 | 0.00 | 73 | 1011.8 |
| 20260504042008 | 5 | 307 | 4.8 | 8.0 | 0.00 | 0.00 | 0.00 | 72 | 1012.3 |
| 20260504041512 | 5 | 306 | 4.8 | 6.4 | 0.00 | 0.00 | 0.00 | 73 | 1012.3 |
| 20260504041006 | 5 | 308 | 4.8 | 8.0 | 0.00 | 0.00 | 0.00 | 72 | 1012.3 |
| 20260504040512 | 5 | 307 | 4.8 | 8.0 | 0.00 | 0.00 | 0.00 | 72 | 1012.3 |
| 20260504040006 | 5 | 318 | 6.4 | 6.4 | 0.00 | 0.00 | 0.00 | 72 | 1012.3 |
| 20260504035510 | 5 | 309 | 4.8 | 8.0 | 0.00 | 0.00 | 0.00 | 72 | 1012.3 |
| 20260504035015 | 5 | 305 | 4.8 | 6.4 | 0.00 | 0.00 | 0.00 | 72 | 1012.3 |
| 20260504034510 | 5 | 320 | 4.8 | 6.4 | 0.00 | 0.00 | 0.00 | 71 | 1012.3 |
| 20260504034014 | 5 | 316 | 3.2 | 6.4 | 0.00 | 0.00 | 0.00 | 71 | 1012.3 |
| 20260504033509 | 5 | 314 | 4.8 | 6.4 | 0.00 | 0.00 | 0.00 | 71 | 1012.3 |
| 20260504033013 | 5 | 305 | 4.8 | 6.4 | 0.00 | 0.00 | 0.00 | 72 | 1012.3 |
| 20260504032508 | 5 | 316 | 3.2 | 6.4 | 0.00 | 0.00 | 0.00 | 73 | 1012.3 |
| 20260504032012 | 5 | 312 | 3.2 | 3.2 | 0.00 | 0.00 | 0.00 | 74 | 1012.3 |
| 20260504031506 | 5 | 333 | 1.6 | 4.8 | 0.00 | 0.00 | 0.00 | 74 | 1012.3 |
| 20260504031011 | 5 | 321 | 1.6 | 3.2 | 0.00 | 0.00 | 0.00 | 73 | 1012.3 |
| 20260504030515 | 5 | 320 | 3.2 | 4.8 | 0.00 | 0.00 | 0.00 | 73 | 1012.3 |
| 20260504030011 | 5 | 320 | 3.2 | 4.8 | 0.00 | 0.00 | 0.00 | 74 | 1012.3 |
| 20260504025515 | 5 | 329 | 1.6 | 3.2 | 0.00 | 0.00 | 0.00 | 74 | 1012.3 |
| 20260504025009 | 5 | 308 | 3.2 | 6.4 | 0.00 | 0.00 | 0.00 | 73 | 1012.3 |
| 20260504024513 | 5 | 326 | 1.6 | 4.8 | 0.00 | 0.00 | 0.00 | 73 | 1012.3 |
| 20260504024010 | 5 | 340 | 1.6 | 3.2 | 0.00 | 0.00 | 0.00 | 72 | 1012.3 |
| 20260504023513 | 5 | 307 | 3.2 | 4.8 | 0.00 | 0.00 | 0.00 | 72 | 1012.3 |
| 20260504023007 | 5 | 315 | 3.2 | 4.8 | 0.00 | 0.00 | 0.00 | 70 | 1012.3 |
| 20260504022511 | 5 | 321 | 1.6 | 4.8 | 0.00 | 0.00 | 0.00 | 69 | 1012.3 |
| 20260504022007 | 6 | 315 | 1.6 | 3.2 | 0.00 | 0.00 | 0.00 | 67 | 1012.3 |
| 20260504021511 | 6 | 316 | 3.2 | 6.4 | 0.00 | 0.00 | 0.00 | 66 | 1012.3 |
| 20260504021015 | 6 | 326 | 3.2 | 6.4 | 0.00 | 0.00 | 0.00 | 65 | 1012.3 |
| 20260504020509 | 6 | 333 | 1.6 | 3.2 | 0.00 | 0.00 | 0.00 | 64 | 1012.3 |
| 20260504020015 | 7 | 332 | 1.6 | 3.2 | 0.00 | 0.00 | 0.00 | 64 | 1012.3 |
| 20260504015509 | 7 | 336 | 1.6 | 3.2 | 0.00 | 0.00 | 0.00 | 63 | 1012.3 |
| 20260504015013 | 7 | 318 | 3.2 | 4.8 | 0.00 | 0.00 | 0.00 | 62 | 1012.7 |
| 20260504014508 | 7 | 335 | 1.6 | 3.2 | 0.00 | 0.00 | 0.00 | 62 | 1012.7 |
| 20260504014012 | 8 | 333 | 3.2 | 6.4 | 0.00 | 0.00 | 0.00 | 61 | 1012.7 |
| 20260504013508 | 8 | 335 | 1.6 | 4.8 | 0.00 | 0.00 | 0.00 | 60 | 1012.7 |
| 20260504013012 | 8 | 325 | 3.2 | 4.8 | 0.00 | 0.00 | 0.00 | 59 | 1012.7 |
| 20260504012506 | 9 | 316 | 3.2 | 4.8 | 0.00 | 0.00 | 0.00 | 58 | 1012.7 |
| 20260504012010 | 9 | 346 | 1.6 | 3.2 | 0.00 | 0.00 | 0.00 | 58 | 1012.7 |
| 20260504011515 | 9 | 313 | 3.2 | 4.8 | 0.00 | 0.00 | 0.00 | 57 | 1012.7 |
| 20260504011010 | 9 | 327 | 3.2 | 3.2 | 0.00 | 0.00 | 0.00 | 58 | 1012.7 |
| 20260504010514 | 9 | 342 | 1.6 | 3.2 | 0.00 | 0.00 | 0.00 | 57 | 1013.2 |
| 20260504010009 | 9 | 326 | 3.2 | 6.4 | 0.00 | 0.00 | 0.00 | 56 | 1013.2 |
| 20260504005513 | 10 | 322 | 3.2 | 6.4 | 0.00 | 0.00 | 0.00 | 56 | 1013.2 |
| 20260504005008 | 10 | 325 | 3.2 | 8.0 | 0.00 | 0.00 | 0.00 | 55 | 1013.2 |
| 20260504004512 | 9 | 306 | 4.8 | 8.0 | 0.00 | 0.00 | 0.00 | 56 | 1013.2 |
| 20260504004006 | 9 | 333 | 3.2 | 6.4 | 0.00 | 0.00 | 0.00 | 56 | 1013.2 |
| 20260504003510 | 9 | 345 | 1.6 | 6.4 | 0.00 | 0.00 | 0.00 | 56 | 1013.2 |
| 20260504003006 | 10 | 334 | 3.2 | 14.5 | 0.00 | 0.00 | 0.00 | 55 | 1013.2 |
| 20260504002510 | 10 | 349 | 1.6 | 3.2 | 0.00 | 0.00 | 0.00 | 53 | 1013.6 |
| 20260504002015 | 10 | 309 | 6.4 | 9.7 | 0.00 | 0.00 | 0.00 | 52 | 1013.6 |
| 20260504001509 | 10 | 309 | 4.8 | 11.3 | 0.00 | 0.00 | 0.00 | 52 | 1013.6 |
| 20260504001013 | 10 | 328 | 3.2 | 4.8 | 0.00 | 0.00 | 0.00 | 51 | 1013.6 |
| 20260504000508 | 10 | 342 | 3.2 | 8.0 | 0.00 | 0.00 | 0.00 | 51 | 1013.6 |
| 20260504000012 | 10 | 335 | 4.8 | 11.3 | 0.00 | 0.00 | 0.00 | 51 | 1013.6 |
| 20260503235506 | 11 | 321 | 8.0 | 14.5 | 0.00 | 0.00 | 0.00 | 50 | 1013.6 |
| 20260503235011 | 11 | 325 | 6.4 | 9.7 | 0.00 | 0.00 | 0.00 | 50 | 1013.6 |
| 20260503234517 | 11 | 312 | 4.8 | 6.4 | 0.00 | 0.00 | 0.00 | 50 | 1014.1 |
| 20260503234011 | 11 | 337 | 3.2 | 4.8 | 0.00 | 0.00 | 0.00 | 50 | 1014.1 |
| 20260503233515 | 11 | 344 | 3.2 | 4.8 | 0.00 | 0.00 | 0.00 | 49 | 1014.1 |
| 20260503233009 | 11 | 354 | 3.2 | 4.8 | 0.00 | 0.00 | 0.00 | 50 | 1014.1 |
| 20260503232513 | 11 | 350 | 3.2 | 4.8 | 0.00 | 0.00 | 0.00 | 49 | 1014.1 |
| 20260503232009 | 11 | 307 | 4.8 | 9.7 | 0.00 | 0.00 | 0.00 | 50 | 1014.1 |
| 20260503231513 | 11 | 308 | 6.4 | 8.0 | 0.00 | 0.00 | 0.00 | 49 | 1014.1 |
| 20260503231007 | 11 | 317 | 6.4 | 11.3 | 0.00 | 0.00 | 0.00 | 50 | 1014.1 |
| 20260503230511 | 11 | 339 | 3.2 | 6.4 | 0.00 | 0.00 | 0.00 | 52 | 1014.1 |
| 20260503230053 | 11 | 334 | 3.2 | 6.4 | 0.00 | 0.00 | 0.00 | 53 | 1014.1 |
| 20260503225511 | 11 | 356 | 1.6 | 4.8 | 0.00 | 0.00 | 0.00 | 52 | 1014.1 |
| 20260503225006 | 11 | 325 | 3.2 | 6.4 | 0.00 | 0.00 | 0.00 | 52 | 1014.5 |
| 20260503224511 | 11 | 340 | 3.2 | 8.0 | 0.00 | 0.00 | 0.00 | 53 | 1014.5 |
| 20260503224015 | 11 | 341 | 4.8 | 8.0 | 0.00 | 0.00 | 0.00 | 52 | 1014.5 |
| 20260503223509 | 11 | 315 | 4.8 | 9.7 | 0.00 | 0.00 | 0.00 | 52 | 1014.5 |
| 20260503223013 | 11 | 323 | 4.8 | 9.7 | 0.00 | 0.00 | 0.00 | 51 | 1014.5 |
| 20260503222509 | 11 | 319 | 3.2 | 6.4 | 0.00 | 0.00 | 0.00 | 51 | 1014.5 |
| 20260503222013 | 11 | 320 | 3.2 | 9.7 | 0.00 | 0.00 | 0.00 | 54 | 1014.5 |
| 20260503221507 | 11 | 312 | 4.8 | 8.0 | 0.00 | 0.00 | 0.00 | 55 | 1014.5 |
| 20260503221011 | 11 | 315 | 4.8 | 9.7 | 0.00 | 0.00 | 0.00 | 57 | 1014.5 |
| 20260503220507 | 10 | 321 | 4.8 | 9.7 | 0.00 | 0.00 | 0.00 | 62 | 1014.5 |
| 20260503220011 | 8 | 61 | 3.2 | 8.0 | 0.00 | 0.00 | 0.00 | 66 | 1014.5 |
| 20260503215515 | 8 | 283 | 6.4 | 12.9 | 0.00 | 0.00 | 0.00 | 67 | 1014.9 |
| 20260503215010 | 7 | 253 | 3.2 | 6.4 | 0.00 | 0.00 | 0.00 | 71 | 1014.9 |
| 20260503214514 | 6 | 266 | 4.8 | 9.7 | 0.00 | 0.00 | 0.00 | 74 | 1014.9 |
| 20260503214009 | 6 | 259 | 6.4 | 12.9 | 0.00 | 0.00 | 0.00 | 75 | 1015.4 |
| 20260503213515 | 6 | 299 | 4.8 | 9.7 | 0.00 | 0.00 | 0.00 | 75 | 1015.4 |
| 20260503213007 | 6 | 273 | 6.4 | 17.7 | 0.00 | 0.00 | 0.00 | 75 | 1015.8 |
| 20260503212512 | 6 | 289 | 6.4 | 11.3 | 0.00 | 0.00 | 0.00 | 74 | 1015.8 |
| 20260503212007 | 6 | 302 | 6.4 | 11.3 | 0.00 | 0.00 | 0.00 | 73 | 1015.8 |
| 20260503211512 | 6 | 306 | 6.4 | 16.1 | 0.00 | 0.00 | 0.00 | 71 | 1015.8 |
| 20260503211006 | 7 | 312 | 8.0 | 12.9 | 0.00 | 0.00 | 0.00 | 67 | 1015.8 |
| 20260503210510 | 8 | 293 | 8.0 | 12.9 | 0.00 | 0.00 | 0.00 | 62 | 1016.3 |
| 20260503210014 | 9 | 291 | 4.8 | 11.3 | 0.00 | 0.00 | 0.00 | 58 | 1016.3 |
| 20260503205510 | 10 | 297 | 3.2 | 9.7 | 0.00 | 0.00 | 0.00 | 57 | 1015.8 |
| 20260503205014 | 10 | 313 | 3.2 | 8.0 | 0.00 | 0.00 | 0.00 | 56 | 1015.8 |
| 20260503204508 | 10 | 302 | 6.4 | 12.9 | 0.00 | 0.00 | 0.00 | 55 | 1015.8 |
| 20260503204012 | 11 | 327 | 3.2 | 12.9 | 0.00 | 0.00 | 0.00 | 54 | 1015.8 |
| 20260503203506 | 11 | 318 | 3.2 | 9.7 | 0.00 | 0.00 | 0.00 | 54 | 1015.8 |
| 20260503203012 | 11 | 306 | 4.8 | 11.3 | 0.00 | 0.00 | 0.00 | 53 | 1015.8 |
| 20260503202506 | 12 | 274 | 4.8 | 11.3 | 0.00 | 0.00 | 0.00 | 53 | 1015.8 |
| 20260503202010 | 13 | 269 | 3.2 | 11.3 | 0.00 | 0.00 | 0.00 | 54 | 1015.8 |
| 20260503201515 | 12 | 309 | 3.2 | 9.7 | 0.00 | 0.00 | 0.00 | 55 | 1015.8 |
| 20260503201011 | 11 | 312 | 3.2 | 14.5 | 0.00 | 0.00 | 0.00 | 58 | 1015.8 |
| 20260503200514 | 11 | 327 | 3.2 | 6.4 | 0.00 | 0.00 | 0.00 | 57 | 1016.3 |
| 20260503200008 | 11 | 274 | 3.2 | 9.7 | 0.00 | 0.00 | 0.00 | 60 | 1016.3 |
| 20260503195514 | 10 | 295 | 3.2 | 6.4 | 0.00 | 0.00 | 0.00 | 69 | 1016.3 |
| 20260503195007 | 9 | 335 | 1.6 | 3.2 | 0.00 | 0.00 | 0.00 | 65 | 1016.3 |
| 20260503194513 | 11 | 276 | 4.8 | 11.3 | 0.00 | 0.00 | 0.00 | 56 | 1016.3 |
| 20260503194006 | 12 | 228 | 6.4 | 14.5 | 0.00 | 0.00 | 0.00 | 53 | 1016.3 |
| 20260503193511 | 12 | 259 | 4.8 | 9.7 | 0.00 | 0.00 | 0.00 | 54 | 1016.7 |
| 20260503193015 | 12 | 280 | 4.8 | 11.3 | 0.00 | 0.00 | 0.00 | 54 | 1016.7 |
| 20260503192509 | 11 | 304 | 4.8 | 9.7 | 0.00 | 0.00 | 0.00 | 55 | 1016.7 |
| 20260503192015 | 12 | 318 | 3.2 | 9.7 | 0.00 | 0.00 | 0.00 | 56 | 1016.7 |
| 20260503191509 | 11 | 306 | 4.8 | 9.7 | 0.00 | 0.00 | 0.00 | 55 | 1016.7 |
| 20260503191013 | 12 | 331 | 4.8 | 14.5 | 0.00 | 0.00 | 0.00 | 53 | 1016.7 |
| 20260503190507 | 12 | 333 | 3.2 | 9.7 | 0.00 | 0.00 | 0.00 | 54 | 1017.1 |
| 20260503190012 | 11 | 324 | 4.8 | 9.7 | 0.00 | 0.00 | 0.00 | 57 | 1017.1 |
| 20260503185507 | 11 | 304 | 3.2 | 9.7 | 0.00 | 0.00 | 0.00 | 57 | 1017.1 |
| 20260503185011 | 11 | 315 | 4.8 | 9.7 | 0.00 | 0.00 | 0.00 | 57 | 1017.1 |
| 20260503184505 | 11 | 334 | 3.2 | 6.4 | 0.00 | 0.00 | 0.00 | 57 | 1017.6 |
| 20260503184010 | 10 | 318 | 4.8 | 8.0 | 0.00 | 0.00 | 0.00 | 59 | 1017.6 |
| 20260503183514 | 9 | 322 | 4.8 | 6.4 | 0.00 | 0.00 | 0.00 | 60 | 1017.6 |
| 20260503183010 | 10 | 334 | 3.2 | 6.4 | 0.00 | 0.00 | 0.00 | 60 | 1017.6 |
| 20260503182514 | 10 | 314 | 4.8 | 9.7 | 0.00 | 0.00 | 0.00 | 60 | 1017.6 |
| 20260503182008 | 11 | 334 | 4.8 | 9.7 | 0.00 | 0.00 | 0.00 | 59 | 1017.6 |
| 20260503181513 | 11 | 347 | 3.2 | 6.4 | 0.00 | 0.00 | 0.00 | 61 | 1017.6 |
| 20260503181007 | 8 | 348 | 1.6 | 6.4 | 0.00 | 0.00 | 0.00 | 63 | 1018.0 |
| 20260503180512 | 8 | 332 | 3.2 | 6.4 | 0.00 | 0.00 | 0.00 | 63 | 1018.0 |
| 20260503180006 | 8 | 341 | 4.8 | 8.0 | 0.00 | 0.00 | 0.00 | 62 | 1018.0 |
| 20260503175510 | 9 | 336 | 3.2 | 8.0 | 0.00 | 0.00 | 0.00 | 60 | 1018.0 |
| 20260503175015 | 10 | 308 | 6.4 | 9.7 | 0.00 | 0.00 | 0.00 | 59 | 1018.0 |
| 20260503174509 | 10 | 348 | 1.6 | 3.2 | 0.00 | 0.00 | 0.00 | 61 | 1018.0 |
| 20260503174015 | 9 | 332 | 4.8 | 8.0 | 0.00 | 0.00 | 0.00 | 61 | 1018.0 |
| 20260503173508 | 8 | 326 | 6.4 | 12.9 | 0.00 | 0.00 | 0.00 | 62 | 1018.0 |
| 20260503173013 | 10 | 326 | 3.2 | 6.4 | 0.00 | 0.00 | 0.00 | 61 | 1018.0 |
| 20260503172507 | 10 | 315 | 3.2 | 6.4 | 0.00 | 0.00 | 0.00 | 61 | 1018.5 |
| 20260503172011 | 10 | 334 | 3.2 | 6.4 | 0.00 | 0.00 | 0.00 | 60 | 1018.0 |
| 20260503171506 | 11 | 339 | 3.2 | 6.4 | 0.00 | 0.00 | 0.00 | 59 | 1018.0 |
| 20260503171011 | 10 | 354 | 3.2 | 4.8 | 0.00 | 0.00 | 0.00 | 62 | 1018.5 |
| 20260503170515 | 10 | 326 | 4.8 | 12.9 | 0.00 | 0.00 | 0.00 | 63 | 1018.5 |
| 20260503151010 | 6 | 324 | 8.0 | 14.5 | 0.00 | 0.00 | 0.00 | 71 | 1018.0 |
| 20260503150514 | 6 | 321 | 8.0 | 19.3 | 0.00 | 0.00 | 0.00 | 72 | 1018.0 |